Weather History for Scottsboro, AL

Change the Weather History Date:

Sunday, September 1, 2013

  Actual Average (KHSV) Record (KHSV)
Temperature  
Mean Temperature 81 °F 78 °F  
Max Temperature 89 °F 89 °F 101 °F (1951)
Min Temperature 73 °F 67 °F 48 °F (1946)
Degree Days  
Heating Degree Days 0 0  
Month to date heating degree days 0  
Since 1 July heating degree days 0  
Cooling Degree Days 16 13  
Month to date cooling degree days 13  
Year to date cooling degree days 1608  
Growing Degree Days 31 (Base 50)    
Moisture  
Dew Point 72 °F    
Average Humidity 82    
Maximum Humidity 100    
Minimum Humidity 46    
Precipitation  
Precipitation 0.00 in 0.10 in 2.56 in (1976)
Month to date precipitation 0.10  
Year to date precipitation 36.42  
Snow  
Snow 0.00 in - - ()
Month to date snowfall  
Since 1 July snowfall  
Since 1 September snowfall  
Snow Depth -    
Sea Level Pressure  
Sea Level Pressure 29.91 in    
Wind  
Wind Speed 1 mph (NW)    
Max Wind Speed 13 mph    
Max Gust Speed 22 mph    
Visibility 8 miles    
Events Rain , Thunderstorm    
T = Trace of Precipitation, MM = Missing Value Source: NWS Daily Summary

Daily Weather History Graph

Daily Weather History Graph

Search for Another Location

Airport:

Trip Planner

Search our weather history database for the weather conditions in past years. The results will help you decide how hot, cold, wet, or windy it might be!

Date:

Astronomy

Sep. 01, 2013 Rise Set
Actual Time 6:17 AM CDT 7:10 PM CDT
Civil Twilight 5:51 AM CDT 7:35 PM CDT
Nautical Twilight 5:20 AM CDT 8:06 PM CDT
Astronomical Twilight 4:49 AM CDT 8:37 PM CDT
Moon 2:44 AM CDT (9/1) 4:42 PM CDT (9/1)
Length of Visible Light 13h 44m
Length of Day
12h 52m
Waning Crescent, 13% of the Moon is Illuminated
Sep 1
Waning Crescent
Sep 5
New
Sep 12
First Quarter
Sep 19
Full
Sep 26
Last Quarter

Hourly Weather History & Observations

Time (CDT) Temp. Heat Index Dew Point Humidity Pressure Visibility Wind Dir Wind Speed Gust Speed Precip Events Conditions
12:15 AM 73.4 °F - 71.6 °F 94% 29.91 in 10.0 mi Calm Calm - N/A   Clear
12:35 AM 73.4 °F - 71.6 °F 94% 29.91 in 9.0 mi Calm Calm - N/A   Clear
12:55 AM 73.4 °F - 71.6 °F 94% 29.90 in 10.0 mi Calm Calm - N/A   Clear
1:15 AM 73.4 °F - 71.6 °F 94% 29.90 in 10.0 mi Calm Calm - N/A   Clear
1:35 AM 73.4 °F - 71.6 °F 94% 29.90 in 9.0 mi Calm Calm - N/A   Clear
1:55 AM 73.4 °F - 71.6 °F 94% 29.90 in 10.0 mi Calm Calm - N/A   Mostly Cloudy
2:15 AM 73.4 °F - 71.6 °F 94% 29.91 in 8.0 mi Calm Calm - N/A   Overcast
2:35 AM 73.4 °F - 73.4 °F 100% 29.91 in 8.0 mi Calm Calm - N/A   Overcast
2:55 AM 73.4 °F - 71.6 °F 94% 29.91 in 10.0 mi Calm Calm - N/A   Overcast
3:15 AM 73.4 °F - 73.4 °F 100% 29.90 in 8.0 mi Calm Calm - N/A   Overcast
3:35 AM 73.4 °F - 73.4 °F 100% 29.90 in 8.0 mi Calm Calm - N/A   Mostly Cloudy
3:55 AM 73.4 °F - 73.4 °F 100% 29.91 in 7.0 mi Calm Calm - N/A   Mostly Cloudy
4:15 AM 73.4 °F - 73.4 °F 100% 29.90 in 5.0 mi SSE 3.5 mph - N/A Rain Light Rain
4:35 AM 73.4 °F - 73.4 °F 100% 29.90 in 4.0 mi Calm Calm - N/A Rain Light Rain
4:55 AM 73.4 °F - 73.4 °F 100% 29.90 in 6.0 mi Calm Calm - N/A   Mostly Cloudy
5:15 AM 73.4 °F - 73.4 °F 100% 29.90 in 5.0 mi Calm Calm - N/A   Mostly Cloudy
5:35 AM 73.4 °F - 73.4 °F 100% 29.89 in 3.0 mi Calm Calm - N/A   Partly Cloudy
5:55 AM 73.4 °F - 73.4 °F 100% 29.91 in 3.0 mi Calm Calm - N/A   Mostly Cloudy
6:15 AM 73.4 °F - 73.4 °F 100% 29.91 in 3.0 mi Calm Calm - N/A   Mostly Cloudy
6:35 AM 73.4 °F - 73.4 °F 100% 29.92 in 3.0 mi Calm Calm - N/A   Mostly Cloudy
6:55 AM 73.4 °F - 73.4 °F 100% 29.93 in 4.0 mi Calm Calm - N/A   Mostly Cloudy
7:15 AM 73.4 °F - 73.4 °F 100% 29.93 in 2.5 mi Calm Calm - N/A   Mostly Cloudy
7:35 AM 73.4 °F - 73.4 °F 100% 29.94 in 3.0 mi ENE 3.5 mph - N/A Thunderstorm Mostly Cloudy
7:55 AM 73.4 °F - 73.4 °F 100% 29.94 in 3.0 mi Calm Calm - N/A   Mostly Cloudy
8:15 AM 73.4 °F - 73.4 °F 100% 29.94 in 3.0 mi Calm Calm - N/A   Mostly Cloudy
8:35 AM 73.4 °F - 73.4 °F 100% 29.94 in 3.0 mi Calm Calm - N/A   Scattered Clouds
8:55 AM 75.2 °F - 75.2 °F 100% 29.95 in 4.0 mi Calm Calm - N/A   Mostly Cloudy
9:15 AM 75.2 °F - 75.2 °F 100% 29.95 in 5.0 mi Calm Calm - N/A   Mostly Cloudy
9:35 AM 77.0 °F - 75.2 °F 94% 29.95 in 5.0 mi NE 3.5 mph - N/A   Mostly Cloudy
9:55 AM 77.0 °F - 75.2 °F 94% 29.96 in 6.0 mi Calm Calm - N/A   Mostly Cloudy
10:15 AM 78.8 °F - 75.2 °F 89% 29.96 in 7.0 mi NE 3.5 mph - N/A   Scattered Clouds
10:35 AM 80.6 °F 86.2 °F 75.2 °F 84% 29.96 in 9.0 mi Calm Calm - N/A   Partly Cloudy
10:55 AM 82.4 °F 89.5 °F 75.2 °F 79% 29.95 in 9.0 mi Calm Calm - N/A   Scattered Clouds
11:15 AM 82.4 °F 88.2 °F 73.4 °F 74% 29.95 in 10.0 mi Calm Calm - N/A   Mostly Cloudy
11:35 AM 82.4 °F 88.2 °F 73.4 °F 74% 29.94 in 10.0 mi Calm Calm - N/A   Mostly Cloudy
11:55 AM 84.2 °F 90.9 °F 73.4 °F 70% 29.93 in 10.0 mi WSW 4.6 mph - N/A Thunderstorm Mostly Cloudy
12:15 PM 84.2 °F 90.9 °F 73.4 °F 70% 29.92 in 10.0 mi SSW 5.8 mph - N/A   Mostly Cloudy
12:35 PM 86.0 °F 91.8 °F 71.6 °F 62% 29.90 in 10.0 mi SW 6.9 mph - N/A   Partly Cloudy
12:55 PM 87.8 °F 93.8 °F 71.6 °F 58% 29.90 in 10.0 mi WSW 10.4 mph 16.1 mph N/A   Clear
1:15 PM 87.8 °F 93.8 °F 71.6 °F 58% 29.90 in 10.0 mi West 11.5 mph 21.9 mph N/A   Partly Cloudy
1:35 PM 86.0 °F 91.8 °F 71.6 °F 62% 29.90 in 10.0 mi NW 9.2 mph - N/A   Mostly Cloudy
1:55 PM 89.6 °F 93.4 °F 68.0 °F 49% 29.90 in 10.0 mi West 12.7 mph 18.4 mph N/A   Partly Cloudy
2:15 PM 89.6 °F 93.4 °F 68.0 °F 49% 29.90 in 10.0 mi West 6.9 mph - N/A   Clear
2:35 PM 89.6 °F 92.2 °F 66.2 °F 46% 29.90 in 10.0 mi North 8.1 mph - N/A   Clear
2:55 PM 89.6 °F 92.2 °F 66.2 °F 46% 29.89 in 10.0 mi Calm Calm - N/A   Partly Cloudy
3:15 PM 89.6 °F 92.2 °F 66.2 °F 46% 29.88 in 10.0 mi WNW 9.2 mph - N/A   Partly Cloudy
3:35 PM 89.6 °F 92.2 °F 66.2 °F 46% 29.87 in 10.0 mi WNW 5.8 mph - N/A   Clear
3:55 PM 89.6 °F 93.4 °F 68.0 °F 49% 29.87 in 10.0 mi NW 5.8 mph - N/A   Clear
4:15 PM 89.6 °F 93.4 °F 68.0 °F 49% 29.87 in 10.0 mi West 5.8 mph - N/A   Clear
4:35 PM 89.6 °F 92.2 °F 66.2 °F 46% 29.87 in 10.0 mi West 4.6 mph - N/A   Clear
4:55 PM 89.6 °F 93.4 °F 68.0 °F 49% 29.88 in 10.0 mi North 6.9 mph - N/A   Clear
5:15 PM 87.8 °F 91.4 °F 68.0 °F 52% 29.88 in 10.0 mi NW 5.8 mph - N/A   Clear
5:35 PM 86.0 °F 89.4 °F 68.0 °F 55% 29.88 in 10.0 mi NW 5.8 mph - N/A   Scattered Clouds
5:55 PM 86.0 °F 89.4 °F 68.0 °F 55% 29.87 in 10.0 mi NW 4.6 mph - N/A   Partly Cloudy
6:15 PM 84.2 °F 89.6 °F 71.6 °F 66% 29.87 in 10.0 mi North 4.6 mph - N/A   Clear
6:35 PM 84.2 °F 89.6 °F 71.6 °F 66% 29.87 in 10.0 mi Calm Calm - N/A   Clear
6:55 PM 82.4 °F 88.2 °F 73.4 °F 74% 29.87 in 10.0 mi NNE 3.5 mph - N/A   Clear
7:15 PM 80.6 °F 85.4 °F 73.4 °F 79% 29.88 in 10.0 mi North 4.6 mph - N/A   Clear
7:35 PM 78.8 °F - 73.4 °F 83% 29.89 in 10.0 mi Calm Calm - N/A   Clear
7:55 PM 77.0 °F - 73.4 °F 89% 29.89 in 10.0 mi Calm Calm - N/A   Scattered Clouds
8:15 PM 77.0 °F - 71.6 °F 83% 29.91 in 10.0 mi Calm Calm - N/A   Scattered Clouds
8:35 PM 77.0 °F - 71.6 °F 83% 29.92 in 10.0 mi Calm Calm - N/A   Partly Cloudy
8:55 PM 77.0 °F - 73.4 °F 89% 29.92 in 10.0 mi Calm Calm - N/A   Clear
9:15 PM 75.2 °F - 73.4 °F 94% 29.92 in 10.0 mi Calm Calm - N/A   Clear
9:35 PM 75.2 °F - 71.6 °F 89% 29.92 in 10.0 mi Calm Calm - N/A   Clear
9:55 PM 75.2 °F - 71.6 °F 89% 29.92 in 10.0 mi Calm Calm - N/A   Clear
10:15 PM 75.2 °F - 71.6 °F 89% 29.92 in 10.0 mi Calm Calm - N/A   Clear
10:35 PM 75.2 °F - 71.6 °F 89% 29.93 in 10.0 mi Calm Calm - N/A   Clear
10:55 PM 73.4 °F - 71.6 °F 94% 29.92 in 10.0 mi Calm Calm - N/A   Mostly Cloudy
11:15 PM 73.4 °F - 71.6 °F 94% 29.92 in 10.0 mi Calm Calm - N/A   Mostly Cloudy
11:35 PM 73.4 °F - 71.6 °F 94% 29.92 in 10.0 mi Calm Calm - N/A   Partly Cloudy
11:55 PM 73.4 °F - 71.6 °F 94% 29.93 in 10.0 mi Calm Calm - N/A   Clear